• In Netherlands
  • List of Countries
  • For 7 days
  • Water Temperature
  • Satellite Maps
  • Weather Map
  • Weather Widgets
  • user-avatar
    Login

    Hourly Weather Albena

    Today, 21 February, Tuesday

    Time Temperature Precipitation Wind Pressure Humidity
    00:00 -3°C° 0 mm 6 mps 748 mmHg 88%
    01:00 -3°C° 0 mm 6 mps 748 mmHg 88%
    02:00 -3°C° 0 mm 6 mps 747 mmHg 87%
    03:00 -3°C° 0 mm 6 mps 747 mmHg 87%
    04:00 -3°C° 0 mm 6 mps 747 mmHg 87%
    05:00 -2°C° 0 mm 5 mps 747 mmHg 87%
    06:00 -2°C° 0 mm 5 mps 747 mmHg 85%
    07:00 -2°C° 0 mm 5 mps 747 mmHg 84%
    08:00 -2°C° 0 mm 6 mps 746 mmHg 81%
    09:00 -1°C° 0 mm 6 mps 746 mmHg 78%
    10:00 +1°C° 0 mm 6 mps 746 mmHg 75%
    11:00 +3°C° 0 mm 6 mps 746 mmHg 72%
    12:00 +4°C° 0 mm 6 mps 746 mmHg 71%
    13:00 +4°C° 0 mm 6 mps 745 mmHg 70%
    14:00 +5°C° 0 mm 6 mps 745 mmHg 69%
    15:00 +5°C° 0 mm 5 mps 745 mmHg 73%
    16:00 +5°C° 0 mm 5 mps 745 mmHg 76%
    17:00 +4°C° 0 mm 4 mps 744 mmHg 80%
    18:00 +3°C° 0 mm 4 mps 744 mmHg 82%
    19:00 +3°C° 0 mm 4 mps 744 mmHg 84%
    20:00 +1°C° 0 mm 4 mps 744 mmHg 85%
    21:00 +1°C° 0 mm 4 mps 744 mmHg 84%
    22:00 +1°C° 0 mm 4 mps 744 mmHg 82%
    23:00 +1°C° 0 mm 5 mps 744 mmHg 81%

    Tomorrow, 22 February, Wednesday

    Time Temperature Precipitation Wind Pressure Humidity
    00:00 +2°C° 0.1 mm 5 mps 744 mmHg 80%
    01:00 +2°C° 0.1 mm 5 mps 743 mmHg 79%
    02:00 +2°C° 0.1 mm 5 mps 743 mmHg 78%
    03:00 +1°C° 0.1 mm 5 mps 743 mmHg 79%
    04:00 +1°C° 0.1 mm 6 mps 743 mmHg 80%
    05:00 +1°C° 0.1 mm 6 mps 743 mmHg 81%
    06:00 +1°C° 0 mm 6 mps 744 mmHg 83%
    07:00 +1°C° 0 mm 6 mps 744 mmHg 86%
    08:00 0°C° 0 mm 7 mps 745 mmHg 88%
    09:00 +3°C° 0 mm 6 mps 745 mmHg 85%
    10:00 +4°C° 0 mm 6 mps 746 mmHg 83%
    11:00 +5°C° 0 mm 6 mps 746 mmHg 80%
    12:00 +7°C° 0 mm 6 mps 746 mmHg 77%
    13:00 +8°C° 0 mm 5 mps 746 mmHg 75%
    14:00 +8°C° 0 mm 5 mps 746 mmHg 73%
    15:00 +8°C° 0 mm 4 mps 746 mmHg 76%
    16:00 +8°C° 0 mm 3 mps 746 mmHg 79%
    17:00 +8°C° 0 mm 3 mps 746 mmHg 82%
    18:00 +7°C° 0 mm 3 mps 746 mmHg 84%
    19:00 +5°C° 0 mm 3 mps 747 mmHg 87%
    20:00 +4°C° 0 mm 3 mps 747 mmHg 89%
    21:00 +4°C° 0 mm 4 mps 747 mmHg 89%
    22:00 +4°C° 0 mm 4 mps 746 mmHg 88%
    23:00 +4°C° 0 mm 4 mps 746 mmHg 88%

    Day after tomorrow, 23 February, Thursday

    Time Temperature Precipitation Wind Pressure Humidity
    00:00 +4°C° 0 mm 4 mps 746 mmHg 87%
    01:00 +4°C° 0 mm 4 mps 746 mmHg 86%
    02:00 +4°C° 0 mm 4 mps 746 mmHg 85%
    03:00 +4°C° 0 mm 4 mps 746 mmHg 84%
    04:00 +4°C° 0 mm 4 mps 745 mmHg 82%
    05:00 +4°C° 0 mm 4 mps 745 mmHg 81%
    06:00 +4°C° 0 mm 4 mps 745 mmHg 79%
    07:00 +5°C° 0 mm 4 mps 746 mmHg 77%
    08:00 +5°C° 0 mm 4 mps 746 mmHg 75%
    09:00 +7°C° 0 mm 5 mps 746 mmHg 70%
    10:00 +9°C° 0 mm 5 mps 746 mmHg 65%
    11:00 +12°C° 0 mm 5 mps 746 mmHg 60%
    12:00 +13°C° 0 mm 5 mps 746 mmHg 58%
    13:00 +14°C° 0 mm 5 mps 746 mmHg 56%
    14:00 +14°C° 0 mm 5 mps 746 mmHg 55%
    15:00 +13°C° 0 mm 5 mps 746 mmHg 59%
    16:00 +13°C° 0 mm 4 mps 745 mmHg 64%
    17:00 +12°C° 0 mm 4 mps 745 mmHg 69%
    18:00 +10°C° 0 mm 4 mps 746 mmHg 73%
    19:00 +8°C° 0 mm 4 mps 746 mmHg 77%
    20:00 +7°C° 0 mm 4 mps 746 mmHg 81%
    21:00 +7°C° 0 mm 4 mps 746 mmHg 82%
    22:00 +7°C° 0 mm 4 mps 746 mmHg 84%
    23:00 +7°C° 0 mm 4 mps 746 mmHg 85%

    24 February, Friday

    Time Temperature Precipitation Wind Pressure Humidity
    00:00 +6°C° 0 mm 4 mps 745 mmHg 87%
    01:00 +6°C° 0 mm 4 mps 745 mmHg 89%
    02:00 +6°C° 0 mm 4 mps 745 mmHg 91%
    03:00 +6°C° 0 mm 5 mps 744 mmHg 92%
    04:00 +5°C° 0 mm 5 mps 744 mmHg 93%
    05:00 +5°C° 0 mm 5 mps 744 mmHg 94%
    06:00 +5°C° 0 mm 5 mps 744 mmHg 93%
    07:00 +6°C° 0 mm 5 mps 744 mmHg 93%
    08:00 +6°C° 0 mm 5 mps 744 mmHg 92%
    09:00 +8°C° 0 mm 5 mps 744 mmHg 84%
    10:00 +10°C° 0 mm 5 mps 744 mmHg 77%
    11:00 +13°C° 0 mm 5 mps 744 mmHg 69%
    12:00 +13°C° 0 mm 5 mps 744 mmHg 65%
    13:00 +14°C° 0 mm 6 mps 744 mmHg 61%
    14:00 +15°C° 0 mm 6 mps 743 mmHg 57%
    15:00 +14°C° 0 mm 5 mps 743 mmHg 61%
    16:00 +14°C° 0 mm 5 mps 743 mmHg 66%
    17:00 +13°C° 0 mm 4 mps 743 mmHg 70%
    18:00 +12°C° 0 mm 5 mps 743 mmHg 74%
    19:00 +10°C° 0 mm 5 mps 743 mmHg 79%
    20:00 +8°C° 0 mm 5 mps 743 mmHg 83%
    21:00 +8°C° 0 mm 5 mps 743 mmHg 84%
    22:00 +8°C° 0 mm 6 mps 743 mmHg 85%
    23:00 +7°C° 0 mm 6 mps 743 mmHg 86%

    25 February, Saturday

    Time Temperature Precipitation Wind Pressure Humidity
    00:00 +7°C° 0 mm 6 mps 742 mmHg 87%
    01:00 +7°C° 0 mm 6 mps 742 mmHg 88%
    02:00 +7°C° 0 mm 6 mps 742 mmHg 88%
    03:00 +7°C° 0 mm 6 mps 741 mmHg 89%
    04:00 +7°C° 0 mm 6 mps 741 mmHg 90%
    05:00 +7°C° 0 mm 6 mps 740 mmHg 90%
    06:00 +8°C° 0.3 mm 7 mps 741 mmHg 89%
    07:00 +8°C° 0.3 mm 7 mps 741 mmHg 89%
    08:00 +9°C° 0.3 mm 8 mps 741 mmHg 88%
    09:00 +7°C° 0.4 mm 9 mps 742 mmHg 86%
    10:00 +6°C° 0.4 mm 10 mps 743 mmHg 84%
    11:00 +3°C° 0.4 mm 10 mps 744 mmHg 82%
    12:00 +5°C° 0.3 mm 9 mps 745 mmHg 78%
    13:00 +5°C° 0.3 mm 8 mps 746 mmHg 73%
    14:00 +5°C° 0.3 mm 8 mps 747 mmHg 69%
    15:00 +5°C° 0 mm 6 mps 747 mmHg 69%
    16:00 +6°C° 0 mm 5 mps 748 mmHg 69%
    17:00 +6°C° 0 mm 4 mps 749 mmHg 69%
    18:00 +5°C° 0 mm 3 mps 750 mmHg 72%
    19:00 +4°C° 0 mm 3 mps 750 mmHg 75%
    20:00 +5°C° 0 mm 2 mps 751 mmHg 77%
    21:00 +4°C° 0 mm 2 mps 752 mmHg 79%
    22:00 +3°C° 0 mm 3 mps 752 mmHg 80%
    23:00 +2°C° 0 mm 3 mps 753 mmHg 81%

    26 February, Sunday

    Time Temperature Precipitation Wind Pressure Humidity
    00:00 +2°C° 0 mm 3 mps 753 mmHg 82%
    01:00 +1°C° 0 mm 3 mps 753 mmHg 84%
    02:00 +2°C° 0 mm 2 mps 753 mmHg 85%
    03:00 +2°C° 0 mm 2 mps 752 mmHg 84%
    04:00 +1°C° 0 mm 3 mps 752 mmHg 83%
    05:00 0°C° 0 mm 3 mps 751 mmHg 82%
    06:00 +1°C° 0 mm 3 mps 751 mmHg 79%
    07:00 +1°C° 0 mm 3 mps 751 mmHg 76%
    08:00 +1°C° 0 mm 4 mps 751 mmHg 73%
    09:00 +4°C° 0 mm 4 mps 751 mmHg 66%
    10:00 +5°C° 0 mm 5 mps 751 mmHg 60%
    11:00 +7°C° 0 mm 5 mps 750 mmHg 53%
    12:00 +8°C° 0 mm 5 mps 750 mmHg 51%
    13:00 +9°C° 0 mm 5 mps 749 mmHg 50%
    14:00 +10°C° 0 mm 5 mps 748 mmHg 49%
    15:00 +10°C° 0 mm 4 mps 748 mmHg 53%
    16:00 +10°C° 0 mm 4 mps 748 mmHg 58%
    17:00 +8°C° 0 mm 4 mps 747 mmHg 63%
    18:00 +7°C° 0 mm 4 mps 747 mmHg 66%
    19:00 +6°C° 0 mm 4 mps 747 mmHg 69%
    20:00 +5°C° 0 mm 3 mps 747 mmHg 71%
    21:00 +4°C° 0 mm 3 mps 748 mmHg 70%
    22:00 +4°C° 0 mm 3 mps 748 mmHg 69%
    23:00 +4°C° 0 mm 3 mps 748 mmHg 68%
    Show more